Creek Data

    Home     View Charts     View Raw Data     Messages

ID Distance Battery Voltage Battery Current Internal Temp Internal Humidity External Temp Solar Input rssi snr Time Stamp Record
33984 14.9 3.93 -5 48 39 49 0 -73 8 03/03/2025 10:30 PM 15699
33983 14.8 3.93 -5 49 39 50 0 -72 8 03/03/2025 10:15 PM 15698
33982 14.9 3.93 -5 49 39 49 0.1 -75 8 03/03/2025 10:00 PM 15697
33981 14.8 3.93 -5 49 39 50 0 -74 7 03/03/2025 09:45 PM 15696
33980 14.8 3.99 -5 50 39 51 0 -74 6 03/03/2025 09:00 PM 15693
33979 14.8 3.93 -5 50 39 51 0 -73 8 03/03/2025 08:45 PM 15692
33978 14.8 3.99 -5 50 39 50 0 -74 8 03/03/2025 08:30 PM 15691
33977 14.8 3.93 -5 50 39 51 0 -73 8 03/03/2025 08:15 PM 15690
33976 14.8 3.99 -5 50 39 51 0.1 -74 7 03/03/2025 08:00 PM 15689
33975 14.8 3.94 -5 51 40 51 0 -74 8 03/03/2025 07:45 PM 15688
33974 14.8 3.94 -5 51 40 52 0.1 -77 8 03/03/2025 07:30 PM 15687
33973 14.8 3.94 -5 52 40 52 0 -78 7 03/03/2025 07:15 PM 15686
33972 14.8 3.94 -5 52 41 53 0 -76 8 03/03/2025 07:00 PM 15685
33971 14.8 3.94 -5 52 41 53 0 -77 8 03/03/2025 06:45 PM 15684
33970 14.8 4.00 -5 53 42 54 0 -78 8 03/03/2025 06:30 PM 15683
33969 14.8 3.94 -5 53 43 53 0.5 -78 8 03/03/2025 06:15 PM 15682
33968 14.8 3.96 0 57 44 56 4.5 -77 7 03/03/2025 05:45 PM 15680
33967 14.8 4.05 7 59 44 57 4.5 -75 8 03/03/2025 05:30 PM 15679
33966 14.8 4.02 28 63 43 59 4.5 -75 7 03/03/2025 05:15 PM 15678
33965 14.8 3.99 0 67 42 61 5.1 -76 8 03/03/2025 05:00 PM 15677
33964 14.9 4.01 6 71 41 64 5.1 -78 8 03/03/2025 04:30 PM 15675
33963 14.9 4.00 6 76 38 63 5.1 -76 7 03/03/2025 04:15 PM 15674
33962 14.9 4.05 6 77 37 67 5.1 -78 7 03/03/2025 04:00 PM 15673
33961 14.9 3.99 0 77 36 67 5.1 -79 8 03/03/2025 03:45 PM 15672
33960 14.9 3.99 0 77 36 68 5.1 -79 7 03/03/2025 03:30 PM 15671